Latest Coastal Weather Observations for Coolangatta (QLD)

IDN60701

Issued at 7:25 am EST Wednesday 3 September 2014 (issued every 10 minutes, with the page automatically refreshed every 10 minutes)

About coastal observations | Map of coastal stations | Coastal observations for NSW | Marine services | Other Formats
Station Details ID: 040717 Name: COOLANGATTA Lat: -28.17 Lon: 153.51 Height: 4.0 m
Data from the previous 72 hours. | See also: Recent months at Coolangatta (QLD)
Date/Time
EST
Temp

°C
Wind Pressure Rain
since 9am
mm
Weather Cloud Vis
km
Sea
Height
m
Swell
Dir
 
Speed
knots
Gust
knots
hPa Trend Height
m
Period
s
Dir
03/07:00am 14.6 ESE 4 7 1010.3 - 0.0 - - 10 - - - -
03/06:30am 12.1 N 5 6 1010.5 - 0.0 - - 10 - - - -
03/06:00am 11.3 N 5 8 1010.2 - 0.0 - - 10 - - - -
03/05:30am 8.4 N 2 5 1010.2 - 0.0 - - 10 - - - -
03/05:00am 6.8 N 2 4 1010.1 - 0.0 - - 10 - - - -
03/04:30am 7.9 W 2 5 1010.1 - 0.0 - - 10 - - - -
03/04:00am 8.6 WNW 4 5 1010.0 - 0.0 - - 10 - - - -
03/03:30am 10.5 WSW 3 5 1010.0 - 0.0 - - 10 - - - -
03/03:00am 13.3 WNW 6 11 1010.4 - 0.0 - - 10 - - - -
03/02:30am 14.4 W 11 17 1010.8 - 0.0 - - 10 - - - -
03/02:00am 14.1 SW 6 10 1011.3 - 0.0 - - 10 - - - -
03/01:30am 14.8 WSW 9 13 1011.3 - 0.0 - - 10 - - - -
03/01:00am 15.4 W 12 20 1011.2 - 0.0 - - 10 - - - -
03/12:30am 15.8 WSW 12 22 1011.4 - 0.0 - - 10 - - - -
03/12:00am 16.1 W 14 22 1011.5 - 0.0 - - 10 - - - -
 
Date/Time
EST
Temp

°C
Wind Pressure Rain
since 9am
mm
Weather Cloud Vis
km
Sea
Height
m
Swell
Dir
 
Speed
knots
Gust
knots
hPa Trend Height
m
Period
s
Dir
02/11:30pm 16.0 WSW 9 19 1011.6 - 0.0 - - 10 - - - -
02/11:00pm 15.2 WSW 6 9 1011.7 - 0.0 - - 10 - - - -
02/10:30pm 15.6 SSW 3 6 1011.6 - 0.0 - - 10 - - - -
02/10:00pm 16.7 SW 5 9 1011.5 - 0.0 - - 10 - - - -
02/09:30pm 18.1 W 14 20 1011.4 - 0.0 - - 10 - - - -
02/09:00pm 18.5 W 13 21 1011.3 - 0.0 - - 10 - - - -
02/08:30pm 18.9 W 12 17 1011.0 - 0.0 - - 10 - - - -
02/08:00pm 19.8 W 12 19 1010.4 - 0.0 - - 10 - - - -
02/07:30pm 20.1 W 9 17 1009.9 - 0.0 - - 10 - - - -
02/07:00pm 21.2 W 13 21 1009.5 - 0.0 - - 10 - - - -
02/06:30pm 21.5 W 14 22 1008.9 - 0.0 - - 10 - - - -
02/06:28pm 21.8 W 15 22 1008.8 - 0.0 - - 10 - - - -
02/06:00pm 21.0 W 7 11 1008.3 - 0.0 - - 10 - - - -
02/05:30pm 22.3 W 9 16 1007.6 - 0.0 - - 10 - - - -
02/05:00pm 22.0 NNW 8 11 1007.0 - 0.0 - Partly cloudy 10 - - - -
02/04:30pm 21.3 NNW 10 13 1006.8 - 0.0 - Partly cloudy 10 - - - -
02/04:00pm 21.8 N 12 17 1006.2 - 0.0 - Partly cloudy 10 - - - -
02/03:30pm 21.6 N 16 22 1005.7 - 0.0 - Partly cloudy 10 - - - -
02/03:00pm 22.8 N 18 24 1005.6 - 0.0 - - 10 - - - -
02/02:30pm 23.3 N 17 21 1006.4 - 0.0 - - 10 - - - -
02/02:00pm 22.9 N 17 23 1007.0 - 0.0 - - 10 - - - -
02/01:30pm 24.1 N 15 19 1007.4 - 0.0 - - 10 - - - -
02/01:00pm 22.7 N 17 23 1008.0 - 0.0 - - 10 - - - -
02/12:30pm 22.5 N 18 21 1008.7 - 0.0 - - 10 - - - -
02/12:00pm 21.9 N 16 21 1009.5 - 0.0 - Mostly cloudy 10 - - - -
02/11:30am 21.8 N 15 19 1010.3 - 0.0 - - 10 - - - -
02/11:00am 20.9 N 17 21 1011.1 - 0.0 - - 10 - - - -
02/10:30am 19.8 NNW 13 18 1011.9 - 0.0 - - 10 - - - -
02/10:00am 19.0 NNW 13 19 1012.4 - 0.0 - - 10 - - - -
02/09:30am 18.5 NNW 13 19 1012.8 - 0.0 - - 10 - - - -
02/09:00am 18.2 NNW 14 19 1012.8 - 0.0 - Cloudy 10 - - - -
02/08:30am 17.8 NNW 12 15 1013.1 - 0.0 - - 10 - - - -
02/08:00am 17.1 NNW 11 14 1013.5 - 0.0 - - 10 - - - -
02/07:30am 16.5 NNW 10 13 1013.8 - 0.0 - - 10 - - - -
02/07:00am 15.8 NNW 5 8 1014.0 - 0.0 - - 10 - - - -
02/06:30am 15.4 SSE 4 5 1013.9 - 0.0 - - 10 - - - -
02/06:00am 14.8 NNW 3 5 1013.8 - 0.0 - Cloudy 10 - - - -
02/05:30am 14.7 NW 5 6 1013.7 - 0.0 - - 10 - - - -
02/05:00am 15.2 NNW 5 7 1013.8 - 0.0 - - 10 - - - -
02/04:30am 15.7 NW 6 7 1013.8 - 0.0 - - 10 - - - -
02/04:00am 17.0 NNW 10 13 1013.7 - 0.0 - - 10 - - - -
02/03:30am 16.8 NNW 9 13 1013.6 - 0.0 - - 10 - - - -
02/03:00am 16.4 NNW 7 8 1013.9 - 0.0 - Mostly cloudy 10 - - - -
02/02:30am 16.5 NNW 7 9 1014.3 - 0.0 - - 10 - - - -
02/02:00am 16.6 NNW 7 10 1014.3 - 0.0 - - 10 - - - -
02/01:30am 16.6 NNW 7 8 1014.9 - 0.0 - - 10 - - - -
02/01:00am 15.6 N 4 6 1015.2 - 0.0 - - 10 - - - -
02/12:30am 15.3 NW 5 6 1015.7 - 0.0 - - 10 - - - -
02/12:00am 14.3 WNW 6 7 1015.8 - 0.0 - - 10 - - - -
 
Date/Time
EST
Temp

°C
Wind Pressure Rain
since 9am
mm
Weather Cloud Vis
km
Sea
Height
m
Swell
Dir
 
Speed
knots
Gust
knots
hPa Trend Height
m
Period
s
Dir
01/11:30pm 14.1 W 5 6 1015.8 - 0.0 - - 10 - - - -
01/11:00pm 14.6 WSW 3 4 1016.1 - 0.0 - - 10 - - - -
01/10:30pm 15.2 WSW 3 4 1016.2 - 0.0 - - 10 - - - -
01/10:00pm 15.4 WSW 4 4 1016.2 - 0.0 - - 10 - - - -
01/09:30pm 15.6 W 4 5 1016.5 - 0.0 - - 10 - - - -
01/09:00pm 16.6 W 4 5 1016.7 - 0.0 - Partly cloudy 10 - - - -
01/08:30pm 18.2 NW 4 6 1016.6 - 0.0 - - 10 - - - -
01/08:00pm 19.2 NNW 9 12 1016.6 - 0.0 - - 10 - - - -
01/07:30pm 19.6 NNW 9 14 1016.4 - 0.0 - - 10 - - - -
01/07:00pm 19.8 N 12 17 1016.2 - 0.0 - - 10 - - - -
01/06:30pm 19.9 N 13 18 1015.7 - 0.0 - - 10 - - - -
01/06:00pm 20.0 N 13 18 1015.4 - 0.0 - - 10 - - - -
01/05:30pm 20.0 N 13 17 1015.5 - 0.0 - - 10 - - - -
01/05:00pm 20.3 N 13 17 1015.4 - 0.0 - - 10 - - - -
01/04:30pm 21.0 N 13 17 1015.1 - 0.0 - - 10 - - - -
01/04:00pm 21.6 N 13 18 1014.6 - 0.0 - - 10 - - - -
01/03:30pm 21.7 N 15 18 1014.7 - 0.0 - - 10 - - - -
01/03:00pm 22.2 N 13 17 1015.0 - 0.0 - - 10 - - - -
01/02:30pm 22.2 NNE 15 18 1015.2 - 0.0 - Partly cloudy 10 - - - -
01/02:00pm 22.1 NNE 15 18 1015.4 - 0.0 - Partly cloudy 10 - - - -
01/01:30pm 22.3 N 14 17 1016.0 - 0.0 - Partly cloudy 10 - - - -
01/01:00pm 21.9 NNE 14 17 1016.1 - 0.0 - Partly cloudy 10 - - - -
01/12:30pm 22.8 NNE 14 18 1016.5 - 0.0 - Partly cloudy 10 - - - -
01/12:00pm 22.1 NNE 14 16 1017.3 - 0.0 - - 10 - - - -
01/11:30am 22.4 NNE 12 15 1017.8 - 0.0 - - 10 - - - -
01/11:00am 21.8 NNE 11 13 1018.6 - 0.0 - - 10 - - - -
01/10:30am 21.0 N 12 14 1018.9 - 0.0 - - 10 - - - -
01/10:00am 20.7 NNE 10 12 1019.2 - 0.0 - - 10 - - - -
01/09:30am 20.1 N 9 11 1019.4 - 0.0 - - 10 - - - -
01/09:00am 20.0 N 6 8 1019.7 - 0.0 - - 10 - - - -
01/08:30am 19.7 N 4 5 1019.7 - 0.0 - - 10 - - - -
01/08:00am 18.3 NE 2 4 1019.5 - 0.0 - - 10 - - - -
01/07:30am 16.2 CALM 0 1 1019.4 - 0.0 - - 10 - - - -
01/07:00am 14.6 CALM 0 0 1019.1 - 0.0 - - 10 - - - -
01/06:30am 13.6 SW 2 4 1018.9 - 0.0 - - 10 - - - -
01/06:00am 13.4 WSW 4 5 1018.7 - 0.0 - Mostly clear 10 - - - -
01/05:30am 14.0 SSW 3 4 1018.3 - 0.0 - Cloudy 10 - - - -
01/05:00am 14.4 CALM 0 0 1018.2 - 0.0 - Cloudy 10 - - - -
01/04:30am 14.4 SW 3 3 1018.2 - 0.0 - Cloudy 10 - - - -
01/04:00am 14.5 WSW 6 6 1018.3 - 0.0 - Partly cloudy 10 - - - -
01/03:30am 14.2 WSW 5 6 1018.1 - 0.0 - Partly cloudy 10 - - - -
01/03:00am 14.3 SW 5 6 1018.2 - 0.0 - Cloudy 10 - - - -
01/02:30am 13.4 WSW 4 5 1018.2 - 0.0 - Partly cloudy 10 - - - -
01/02:00am 13.9 SW 3 4 1018.3 - 0.0 - Partly cloudy 10 - - - -
01/01:30am 13.9 CALM 0 0 1018.4 - 0.0 - Cloudy 10 - - - -
01/01:00am 14.1 SW 4 5 1018.6 - 0.0 - Cloudy 10 - - - -
01/12:30am 14.1 WSW 4 6 1018.7 - 0.0 - Cloudy 10 - - - -
01/12:00am 13.6 SW 3 4 1018.8 - 0.0 - Mostly cloudy 10 - - - -
 
Date/Time
EST
Temp

°C
Wind Pressure Rain
since 9am
mm
Weather Cloud Vis
km
Sea
Height
m
Swell
Dir
 
Speed
knots
Gust
knots
hPa Trend Height
m
Period
s
Dir
31/11:30pm 13.7 SW 3 4 1019.0 - 0.0 - Partly cloudy 10 - - - -
31/11:00pm 13.9 SW 5 5 1019.0 - 0.0 - - 10 - - - -
31/10:30pm 14.3 WSW 6 7 1019.0 - 0.0 - Partly cloudy 10 - - - -
31/10:00pm 14.4 SW 5 6 1018.8 - 0.0 - - 10 - - - -
31/09:30pm 14.7 SW 5 5 1018.9 - 0.0 - - 10 - - - -
31/09:00pm 15.1 WSW 5 6 1018.8 - 0.0 - - 10 - - - -
31/08:30pm 15.8 SW 4 5 1018.9 - 0.0 - - 10 - - - -
31/08:00pm 16.4 SW 7 8 1018.7 - 0.0 - - 10 - - - -
31/07:30pm 15.4 WSW 5 6 1018.6 - 0.0 - Partly cloudy 10 - - - -
31/07:00pm 16.2 S 4 5 1018.3 - 0.0 - - 10 - - - -
31/06:30pm 16.5 SSW 5 6 1017.9 - 0.0 - - 10 - - - -
31/06:00pm 17.4 SSE 5 8 1017.6 - 0.0 - - 10 - - - -
31/05:30pm 18.3 SSE 8 12 1017.2 - 0.0 - - 10 - - - -
31/05:00pm 19.2 SE 12 16 1017.0 - 0.0 - - 10 - - - -
31/04:30pm 19.8 SSE 11 17 1016.6 - 0.0 - - 10 - - - -
31/04:00pm 20.6 SE 13 19 1016.4 - 0.0 - - 10 - - - -
31/03:30pm 21.3 SSE 12 17 1016.3 - 0.0 - - 10 - - - -
31/03:00pm 22.0 SE 15 19 1016.1 - 0.0 - - 10 - - - -
31/02:30pm 22.2 SE 15 19 1016.0 - 0.0 - - 10 - - - -
31/02:00pm 22.4 SE 16 21 1016.0 - 0.0 - - 10 - - - -
31/01:30pm 22.7 SE 15 19 1016.1 - 0.0 - - 10 - - - -
31/01:00pm 22.6 ESE 15 19 1016.3 - 0.0 - - 10 - - - -
31/12:30pm 23.3 ESE 14 19 1016.8 - 0.0 - Partly cloudy 10 - - - -
31/12:00pm 23.2 SSW 6 9 1017.2 - 0.0 - Mostly clear 10 - - - -
31/11:30am 22.8 SSW 7 11 1017.7 - 0.0 - - 10 - - - -
31/11:00am 22.3 SSE 8 13 1018.2 - 0.0 - - 10 - - - -
31/10:30am 22.3 SSW 8 11 1018.7 - 0.0 - - 10 - - - -
31/10:00am 21.3 SSW 10 16 1018.9 - 0.0 - - 10 - - - -
31/09:30am 21.0 SW 9 14 1018.9 - 0.0 - - 10 - - - -
31/09:00am 20.1 SSW 11 17 1019.1 - 0.0 - - 10 - - - -
31/08:30am 19.6 SSW 9 11 1019.2 - 0.0 - - 10 - - - -
31/08:00am 18.6 S 8 12 1019.2 - 0.0 - - 10 - - - -
31/07:30am 14.1 WSW 3 4 1019.1 - 0.0 - - 10 - - - -

Other Formats:

Comma delimited format used in spreadsheet applications
http://www.bom.gov.au/fwo/IDN60701/IDN60701.94592.axf

JavaScript Object Notation format (JSON) in row-major order
http://www.bom.gov.au/fwo/IDN60701/IDN60701.94592.json